TimeEDT,TemperatureF,Dew PointF,Humidity,Sea Level PressureIn,VisibilityMPH,Wind Direction,Wind SpeedMPH,Gust SpeedMPH,PrecipitationIn,Events,Conditions,WindDirDegrees,DateUTC
12:53 AM,60.1,54.0,80,30.08,10.0,North,4.6,-,N/A,,Clear,350,2013-06-15 04:53:00
1:53 AM,57.9,55.0,90,30.07,10.0,Calm,Calm,-,N/A,,Clear,0,2013-06-15 05:53:00
2:53 AM,57.0,55.0,93,30.06,8.0,Calm,Calm,-,N/A,,Clear,0,2013-06-15 06:53:00
3:30 AM,55.4,53.6,94,30.07,1.8,Calm,Calm,-,N/A,,Clear,0,2013-06-15 07:30:00
3:37 AM,55.4,53.6,94,30.06,3.0,SSW,3.5,-,N/A,,Clear,210,2013-06-15 07:37:00
3:45 AM,53.6,53.6,100,30.06,1.2,South,3.5,-,N/A,,Clear,180,2013-06-15 07:45:00
3:47 AM,51.8,51.8,100,30.06,0.5,South,3.5,-,N/A,Fog,Fog,180,2013-06-15 07:47:00
3:53 AM,52.0,51.1,97,30.06,0.2,Calm,Calm,-,N/A,Fog,Fog,0,2013-06-15 07:53:00
4:00 AM,53.6,53.6,100,30.07,0.8,South,3.5,-,N/A,,Clear,190,2013-06-15 08:00:00
4:03 AM,53.6,53.6,100,30.07,2.0,SSW,3.5,-,N/A,,Clear,200,2013-06-15 08:03:00
4:10 AM,53.6,53.6,100,30.07,7.0,SSW,3.5,-,N/A,,Clear,200,2013-06-15 08:10:00
4:15 AM,53.6,51.8,94,30.07,0.8,Calm,Calm,-,N/A,,Mist,0,2013-06-15 08:15:00
4:22 AM,53.6,51.8,94,30.08,0.2,Calm,Calm,-,N/A,Fog,Fog,0,2013-06-15 08:22:00
4:27 AM,53.6,51.8,94,30.08,0.8,Calm,Calm,-,N/A,,Clear,0,2013-06-15 08:27:00
4:30 AM,53.6,53.6,100,30.08,2.0,Calm,Calm,-,N/A,,Clear,0,2013-06-15 08:30:00
4:37 AM,53.6,51.8,94,30.08,1.0,Calm,Calm,-,N/A,,Mist,0,2013-06-15 08:37:00
4:40 AM,53.6,51.8,94,30.08,0.5,Calm,Calm,-,N/A,Fog,Fog,0,2013-06-15 08:40:00
4:53 AM,52.0,52.0,100,30.09,0.2,Calm,Calm,-,N/A,Fog,Fog,0,2013-06-15 08:53:00
5:53 AM,50.0,50.0,100,30.11,0.2,Calm,Calm,-,N/A,Fog,Fog,0,2013-06-15 09:53:00
6:53 AM,50.0,50.0,100,30.12,0.2,Calm,Calm,-,0.01,Fog,Fog,0,2013-06-15 10:53:00
7:53 AM,53.1,53.1,100,30.14,0.2,Calm,Calm,-,N/A,Fog,Fog,0,2013-06-15 11:53:00
7:57 AM,53.6,53.6,100,30.14,0.8,Calm,Calm,-,N/A,,Mist,0,2013-06-15 11:57:00
8:05 AM,53.6,53.6,100,30.14,2.0,Calm,Calm,-,N/A,,Mostly Cloudy,0,2013-06-15 12:05:00
8:10 AM,53.6,53.6,100,30.14,4.0,Calm,Calm,-,N/A,,Scattered Clouds,0,2013-06-15 12:10:00
8:53 AM,57.9,55.0,90,30.15,10.0,Calm,Calm,-,N/A,,Clear,0,2013-06-15 12:53:00
9:53 AM,64.0,54.0,70,30.15,10.0,SW,3.5,-,N/A,,Clear,220,2013-06-15 13:53:00
10:53 AM,68.0,55.0,63,30.13,10.0,SW,4.6,-,N/A,,Clear,220,2013-06-15 14:53:00
11:53 AM,72.0,52.0,49,30.12,10.0,WNW,8.1,-,N/A,,Clear,300,2013-06-15 15:53:00
12:53 PM,72.0,50.0,46,30.11,10.0,WSW,6.9,-,N/A,,Partly Cloudy,240,2013-06-15 16:53:00
1:53 PM,73.9,51.1,45,30.10,10.0,West,5.8,-,N/A,,Partly Cloudy,270,2013-06-15 17:53:00
2:53 PM,73.9,50.0,43,30.07,10.0,Variable,6.9,-,N/A,,Clear,0,2013-06-15 18:53:00
3:53 PM,75.0,51.1,43,30.07,10.0,SW,3.5,-,N/A,,Clear,220,2013-06-15 19:53:00
4:53 PM,75.9,51.1,42,30.06,10.0,NW,6.9,-,N/A,,Clear,320,2013-06-15 20:53:00
5:53 PM,75.9,50.0,40,30.06,10.0,West,11.5,-,N/A,,Clear,270,2013-06-15 21:53:00
6:53 PM,73.0,52.0,48,30.06,10.0,West,4.6,-,N/A,,Partly Cloudy,260,2013-06-15 22:53:00
7:53 PM,71.1,52.0,51,30.06,10.0,West,4.6,-,N/A,,Clear,260,2013-06-15 23:53:00
8:53 PM,70.0,52.0,53,30.04,10.0,WSW,5.8,-,0.00,,Partly Cloudy,250,2013-06-16 00:53:00
9:53 PM,68.0,52.0,56,30.03,10.0,SSW,4.6,-,N/A,,Scattered Clouds,210,2013-06-16 01:53:00
10:53 PM,66.9,53.1,61,30.04,10.0,South,5.8,-,N/A,,Scattered Clouds,180,2013-06-16 02:53:00
11:53 PM,66.9,54.0,63,30.03,10.0,South,5.8,-,N/A,,Overcast,170,2013-06-16 03:53:00